Torna al catalogo

DELTA 1 DEB

AttivoHEO
NORAD 14620·DEBRIS·🇺🇸 United States

Lanciato Aug 3, 1981 da Vandenberg Space Force Base

Loading…

Prossimi Passaggi (prossime 24 ore)

TLE

AggiornatoSource: Space-Track

Epoca: Sep 11, 2026, 21:21 UTC

1 14620U 81070J   26254.88968886  .00000905  00000-0  31502-2 0  9996
2 14620  90.7433  39.0520 5969708 116.3068 315.6195  3.86399264524370

Traccia DELTA 1 DEB in tempo reale con AllMySat

Download on the App Store